Satellite-Ground Cal/Val Region Overpasses Predictions

Prediction of Satellite NPP Overpassing Cal/Val Region: PacNW

Region Location: (Latitude: 10.00, Longitude: 139.50) to (Latitude: 22.70, Longitude: 165.60).

Table of predicted overpasses for the next 14.0 days since TLE Epoch: 1/26/2018
Interval Starting Time Starting Location Ending Time Ending Location
1 01/26/2018 14:39:26 ( 22.69, 165.03) 01/26/2018 14:43:02 ( 10.01, 162.01)
2 01/26/2018 16:20:56 ( 22.68, 139.65) 01/26/2018 16:21:06 ( 22.10, 139.51)
3 01/27/2018 03:30:01 ( 10.03, 147.18) 01/27/2018 03:33:36 ( 22.65, 144.18)
4 01/27/2018 16:01:54 ( 22.68, 144.41) 01/27/2018 16:05:29 ( 10.05, 141.41)
5 01/28/2018 03:10:59 ( 10.03, 151.94) 01/28/2018 03:14:34 ( 22.65, 148.93)
6 01/28/2018 15:42:51 ( 22.67, 149.17) 01/28/2018 15:46:26 ( 10.05, 146.17)
7 01/29/2018 02:51:56 ( 10.04, 156.69) 01/29/2018 02:55:31 ( 22.66, 153.69)
8 01/29/2018 15:23:49 ( 22.67, 153.93) 01/29/2018 15:27:24 ( 10.04, 150.93)
9 01/30/2018 02:32:54 ( 10.04, 161.45) 01/30/2018 02:36:29 ( 22.67, 158.45)
10 01/30/2018 15:04:46 ( 22.66, 158.69) 01/30/2018 15:08:21 ( 10.04, 155.69)
11 01/31/2018 02:14:37 ( 12.75, 165.59) 01/31/2018 02:17:26 ( 22.67, 163.21)
12 01/31/2018 03:55:20 ( 10.00, 140.85) 01/31/2018 03:56:59 ( 15.82, 139.50)
13 01/31/2018 14:45:44 ( 22.65, 163.45) 01/31/2018 14:49:19 ( 10.03, 160.44)
14 02/01/2018 03:36:18 ( 10.01, 145.61) 02/01/2018 03:39:54 ( 22.69, 142.59)
15 02/01/2018 14:29:47 ( 11.73, 165.59) 02/01/2018 14:30:16 ( 10.03, 165.20)
16 02/01/2018 16:08:10 ( 22.70, 142.84) 02/01/2018 16:11:46 ( 10.02, 139.83)
17 02/02/2018 03:17:15 ( 10.01, 150.37) 02/02/2018 03:20:51 ( 22.69, 147.35)
18 02/02/2018 15:49:08 ( 22.69, 147.60) 02/02/2018 15:52:44 ( 10.01, 144.59)
19 02/03/2018 02:58:13 ( 10.02, 155.13) 02/03/2018 03:01:49 ( 22.70, 152.11)
20 02/03/2018 15:30:05 ( 22.68, 152.36) 02/03/2018 15:33:41 ( 10.00, 149.34)
21 02/04/2018 02:39:10 ( 10.03, 159.88) 02/04/2018 02:42:45 ( 22.65, 156.88)
22 02/04/2018 15:11:03 ( 22.68, 157.12) 02/04/2018 15:14:38 ( 10.05, 154.12)
23 02/05/2018 02:20:08 ( 10.03, 164.64) 02/05/2018 02:23:43 ( 22.66, 161.64)
24 02/05/2018 14:52:01 ( 22.67, 161.88) 02/05/2018 14:55:36 ( 10.05, 158.87)
25 02/06/2018 03:42:35 ( 10.05, 144.02) 02/06/2018 03:46:10 ( 22.67, 141.02)
26 02/06/2018 14:34:10 ( 18.44, 165.60) 02/06/2018 14:36:33 ( 10.04, 163.63)
27 02/06/2018 16:14:28 ( 22.65, 141.26) 02/06/2018 16:16:31 ( 15.43, 139.51)
28 02/07/2018 03:23:32 ( 10.00, 148.80) 02/07/2018 03:27:08 ( 22.68, 145.78)
29 02/07/2018 15:55:26 ( 22.64, 146.02) 02/07/2018 15:59:01 ( 10.02, 143.01)
30 02/08/2018 03:04:29 ( 10.01, 153.55) 02/08/2018 03:08:05 ( 22.69, 150.54)
31 02/08/2018 15:36:22 ( 22.69, 150.79) 02/08/2018 15:39:58 ( 10.01, 147.77)


NCC Satellite Cal/Val Overpasses Prediction Service
